OpenBCM V1.13 (Linux)

Packet Radio Mailbox

DB0FHN

[JN59NK Nuernberg]

 Login: GUEST





  
LU9DCE > KEP      11.03.19 20:34l 252 Lines 12342 Bytes #999 (0) @ WW
BID : 19965_LU9DCE
Read: DK3UZ DF7EAV GUEST
Subj: TLE 11 03
Path: DB0FHN<DB0BLO<DB0ERF<DB0UHI<DB0OSN<DB0RES<IR2UBX<IW0QNL<JH4XSY<JE7YGF<
      GB7CIP<GB7YEW<LU9DCE
Sent: 190311/1800Z 19965@LU9DCE.TOR.BA.ARG.SOAM LinBPQ6.0.18

            __    _  _  ___  ____   ___  ____    ____  ____  ____
           (  )  / )( \/ _ \(    \ / __)(  __)  (  _ \(  _ \/ ___)
           / (_/\) \/ (\__  )) D (( (__  ) _)    ) _ ( ) _ (\___ \
           \____/\____/(___/(____/ \___)(____)  (____/(____/(____/
               ESTACION DE PACKET RADIO - BUENOS AIRES (GF05OM)
                   BOLETINES INFORMATIVOS PROGRAMADOS (BIP)
                  SOPORTE TECNICO - HELLOCODELINUX@GMAIL.COM

+----------------------------------------------------------------------------+
OSCAR 7
1  7530U 74089B   19069.86575258 -.00000041  00000-0  21256-4 0  9990
2  7530 101.7319  38.6013 0012078 178.3950 209.2525 12.53636992 28013
OSCAR 11 (UoSAT 2)
1 14781U 84021B   19070.52107969  .00000053  00000-0  12699-4 0  9991
2 14781  97.6218  99.8744 0007033 288.7250  71.3201 14.83068431884060
OSCAR 19 (LUSAT)
1 20442U 90005G   19069.88593090 -.00000002 +00000-0 +15578-4 0  9996
2 20442 098.6394 012.1069 0012911 084.0789 276.1866 14.32918967522029
EYESAT A
1 22825U 93061C   19070.21692803 -.00000006  00000-0  15494-4 0  9990
2 22825  98.8963  56.6217 0007410 291.8587  68.1806 14.30052883327738
ITAMSAT
1 22826U 93061D   19069.96194660 -.00000008 +00000-0 +14655-4 0  9999
2 22826 098.8903 056.3652 0007880 280.1242 079.9051 14.30385912327647
RADIO ROSTO
1 23439U 94085A   19069.95295977 -.00000047 +00000-0 -12630-3 0  9993
2 23439 064.8145 277.4189 0148515 132.3298 016.2380 11.27568230996640
JAS 2
1 24278U 96046B   19069.94788043 -.00000028 +00000-0 +53324-5 0  9999
2 24278 098.5216 236.9636 0351102 138.6192 224.2121 13.53089393114063
TECHSAT 1B
1 25397U 98043D   19069.89069350 -.00000000  00000-0  19187-4 0  9996
2 25397  98.6799  11.2951 0001198  20.1733 339.9492 14.23661427 73678
ISS (ZARYA)
1 25544U 98067A   19070.53206553 -.00000367  00000-0  16751-5 0  9998
2 25544  51.6413 126.7405 0004027  95.1567  57.5582 15.52796227160086
PCSAT
1 26931U 01043C   19069.94240720 -.00000035 +00000-0 +18398-4 0  9994
2 26931 067.0493 261.0798 0005361 273.8487 086.2001 14.30534608910639
SAUDISAT 1C
1 27607U 02058C   19070.18797530 -.00000029  00000-0  16906-4 0  9992
2 27607  64.5568 353.8114 0082306 275.4715  83.7003 14.75525826872354
CUTE-1
1 27844U 03031E   19070.03070558  .00000033  00000-0  34472-4 0  9997
2 27844  98.6869  79.7216 0009084 325.0744  34.9837 14.22163872814127
CUBESAT XI 4
1 27848U 03031J   19069.99454439  .00000019  00000-0  28307-4 0  9992
2 27848  98.6949  80.1630 0009172 337.1200  22.9567 14.21760960813974
MOZHAYETS 4
1 27939U 03042A   19070.51835522  .00000139  00000-0  33565-4 0  9996
2 27939  98.0231 208.3650 0013473  27.8858 332.3069 14.66759833826009
CUBESAT XI 5
1 28895U 05043F   19069.83486581  .00000112  00000-0  30410-4 0  9998
2 28895  97.9419 216.0824 0015654 309.7239  50.2584 14.63636713712879
CUTE-1.7+APD II
1 32785U 08021C   19070.51682207  .00000155  00000-0  22366-4 0  9998
2 32785  97.5491  74.9174 0011914 227.3201 132.7013 14.88260540588935
DELFI C3
1 32789U 08021G   19069.94224829 +.00001283 +00000-0 +90265-4 0  9995
2 32789 097.4779 122.5648 0013975 106.1580 254.1187 15.06707403591846
SEEDS
1 32791U 08021J   19070.03021415  .00000359  00000-0  41845-4 0  9999
2 32791  97.5304  80.3092 0012708 203.8214 156.2418 14.90749070589260
YUBELEINY
1 32953U 08025A   19070.48826934  .00000020  00000-0  75656-4 0  9993
2 32953  82.5040 206.4393 0018658 348.8001  11.2665 12.43088066489989
PRISM (HITOMI)
1 33493U 09002B   19069.84135727  .00000932  00000-0  87351-4 0  9997
2 33493  98.1229 347.0159 0015870 149.2612 210.9541 14.96532986550218
KKS-1 (KISEKI)
1 33499U 09002H   19069.91509130 +.00000064 +00000-0 +17459-4 0  9992
2 33499 098.3548 265.4009 0009637 157.1065 203.0574 14.75412538544085
SWISSCUBE
1 35932U 09051B   19070.10650526  .00000104  00000-0  34635-4 0  9999
2 35932  98.5750 233.2263 0008777 109.6910 250.5234 14.56251128502287
BEESAT
1 35933U 09051C   19069.90959539 +.00000085 +00000-0 +30207-4 0  9991
2 35933 098.5782 234.7308 0006917 120.6345 239.5535 14.56344475502287
ITUPSAT 1
1 35935U 09051E   19070.39111409  .00000047  00000-0  21929-4 0  9993
2 35935  98.5895 235.4702 0009221 117.4128 242.8007 14.55508996502194
XIWANG-1 (HOPE-1)
1 36122U 09072B   19069.71352943 -.00000038 +00000-0 +10809-4 0  9995
2 36122 100.0739 076.7960 0006876 212.2804 147.7862 13.16348634443721
TISAT 1
1 36799U 10035E   19070.36365722  .00000406  00000-0  47153-4 0  9998
2 36799  98.1396 219.3127 0013262  56.0085 304.2390 14.91022085469962
JUGNU
1 37839U 11058B   19070.56246590  .00000306  00000-0  21525-4 0  9997
2 37839  19.9603 215.9067 0018981 314.7222 108.3552 14.12643361383221
SRMSAT
1 37841U 11058D   19069.91725696 +.00000313 +00000-0 +26925-4 0  9993
2 37841 019.9717 274.5327 0011869 180.5811 313.0059 14.10626067382498
M-CUBED/EXP-1 PRIME
1 37855U 11061F   19070.16298706  .00001060  00000-0  61153-4 0  9990
2 37855 101.7277 274.6056 0174340  11.7547 348.7655 15.05184586401803
HORYU 2
1 38340U 12025D   19069.56290111  .00000156  00000-0  30904-4 0  9990
2 38340  98.3418 105.0836 0012818  84.7247 275.5424 14.75676442366390
STRAND 1
1 39090U 13009E   19070.15251947 -.00000006  00000-0  12978-4 0  9993
2 39090  98.4980 277.7193 0008351 219.4487 140.6091 14.35073265316118
SOMP
1 39134U 13015E   19069.88089363 +.00001303 +00000-0 +69550-4 0  9996
2 39134 064.8650 343.7382 0021158 319.1605 040.7936 15.19884110325044
BEESAT 3
1 39135U 13015F   19069.95698086 +.00000842 +00000-0 +51895-4 0  9993
2 39135 064.8708 000.4177 0009807 290.2350 069.7721 15.17251125324720
BEESAT 2
1 39136U 13015G   19069.95715979 +.00001074 +00000-0 +64459-4 0  9993
2 39136 064.8717 003.9353 0011232 291.3376 068.6551 15.16692400324655
CUBEBUG 1
1 39153U 13018D   19070.27991527  .00000170  00000-0  29139-4 0  9999
2 39153  97.9747 168.9983 0017597 156.7255 203.4757 14.80522598317104
ZACUBE
1 39417U 13066B   19070.19007187  .00000163  00000-0  26986-4 0  9995
2 39417  97.5691  89.2517 0058938   1.7611 358.3799 14.81065903286315
TRITON 1
1 39427U 13066M   19070.20045003  .00000166  00000-0  34121-4 0  9990
2 39427  97.6668  53.7856 0115100 123.6355 237.5896 14.67788969283745
GOMX 1
1 39430U 13066Q   19070.46963830  .00000089  00000-0  25379-4 0  9998
2 39430  97.7336  33.6310 0150402 206.7099 152.6282 14.59204677282134
HUMSAT D
1 39433U 13066T   19069.82960755 +.00000459 +00000-0 +50296-4 0  9999
2 39433 097.5677 121.3469 0029282 273.8313 085.9558 14.92100474287000
CUBEBUG 2
1 39440U 13066AA  19069.94963234 +.00000221 +00000-0 +37583-4 0  9996
2 39440 097.6014 074.2846 0081493 049.7555 311.0746 14.75803513284069
FUNCUBE 1
1 39444U 13066AE  19070.04263168  .00000254  00000-0  37619-4 0  9998
2 39444  97.5679  90.9563 0057920 356.5745   3.5064 14.81874316285173
UWE-3
1 39446U 13066AG  19070.46295932  .00000175  00000-0  29809-4 0  9994
2 39446  97.5840  81.6555 0070686  25.0611 335.4005 14.78338748284606
SPROUT
1 39770U 14029E   19070.46322419  .00000672  00000-0  80748-4 0  9996
2 39770  97.8793 174.4592 0010363  55.4389 304.7821 14.87206380260080
UNISAT 6
1 40012U 14033C   19070.22295522  .00000125  00000-0  26002-4 0  9996
2 40012  97.7726 301.0292 0059654  59.4058 301.3017 14.73935262254035
DUCHIFAT 1
1 40021U 14033M   19070.52885501  .00000454  00000-0  52283-4 0  9996
2 40021  97.9222 354.8141 0013600  23.0098 337.1726 14.90541652256771
QB50P1
1 40025U 14033R   19069.90168673 +.00000275 +00000-0 +35309-4 0  9995
2 40025 097.9067 349.7493 0013303 033.4563 326.7492 14.88879555255964
CHUBUSAT 1
1 40300U 14070C   19070.44671503  .00000554  00000-0  27179-4 0  9990
2 40300  97.3352 147.1057 0021290  46.8716  15.3505 15.21941757240927
NUDT-PHONESAT
1 40900U 15049B   19070.48283738  .00001801  00000-0  80977-4 0  9997
2 40900  97.4397  80.8082 0013615 165.0484 349.8788 15.22355597192568
ZDPS 2A
1 40901U 15049C   19070.45851095  .00000586  00000-0  32513-4 0  9994
2 40901  97.4611  77.7249 0013214 180.9549 338.5808 15.17540188192183
ZDPS 2B
1 40902U 15049D   19070.46900596  .00000825  00000-0  44665-4 0  9994
2 40902  97.4532  75.3647 0013417 178.0695 336.5031 15.17316733192168
XW-2A
1 40903U 15049E   19070.47405602  .00001660  00000-0  41608-4 0  9996
2 40903  97.3513 112.6238 0014736 138.3198 337.6066 15.41446945194966
KAITUO 1A
1 40904U 15049F   19070.49359884  .00000430  00000-0  26339-4 0  9997
2 40904  97.4655  74.2129 0014397 184.9982 326.1565 15.15265594191973
OBJECT G
1 40905U 15049G   19070.49810726  .00000070  00000-0  74031-5 0  9998
2 40905  97.4684  71.8947 0015438 179.7258 299.1971 15.14197924191860
XW-2C
1 40906U 15049H   19070.45005390  .00000286  00000-0  18528-4 0  9995
2 40906  97.4664  74.1882 0014878 176.2724 348.1715 15.15533335191963
XW-2D
1 40907U 15049J   19070.49729174  .00000423  00000-0  25621-4 0  9998
2 40907  97.4639  73.9121 0014314 173.7062 305.3288 15.15710955191988
LILACSAT 2
1 40908U 15049K   19070.45203319  .00000010  00000-0  41929-5 0  9995
2 40908  97.4763  72.8667 0015717 179.4044 338.1692 15.13716218191799
XW-2F
1 40910U 15049M   19070.41635411  .00000956  00000-0  51553-4 0  9998
2 40910  97.4621  75.6325 0015287 167.7046 299.1570 15.17073860191964
XW-2B
1 40911U 15049N   19070.46604742  .00000632  00000-0  36664-4 0  9994
2 40911  97.4667  74.5065 0013979 174.4298 340.3705 15.15647157191877
KAITUO 1B
1 40912U 15049P   19070.47459260  .00001080  00000-0  54202-4 0  9995
2 40912  97.4510  79.1245 0015874 152.8823   3.1965 15.19357277192245
TIANWANG 1C (TW-1C)
1 40926U 15051B   19070.52989786  .00009422  00000-0  14953-3 0  9996
2 40926  97.1500 116.9068 0009544  32.0273  74.0301 15.53526678194754
